Location: Doverdale
(52.2833°N, 2.2000°W)
Time: 03:23:23
(UTC+00:00)

Cosmos 2369 Rocket - Pass Details

Date: 29 October 2020
Orbit: 827 x 854 km, 71.0° (Epoch: 27 November)

Event Time Altitude Azimuth Distance (km) Brightness Sun altitude
Rises 17:29:22 0° 249° (WSW) 3,404 7.6 -7.4°
Reaches altitude 10° 17:32:08 10° 260° (W) 2,476 6.4 -7.8°
Maximum altitude 17:37:02 29° 320° (NW) 1,523 3.9 -8.5°
Drops below altitude 10° 17:41:59 10° 20° (NNE) 2,496 4.4 -9.3°
Sets 17:44:48 0° 31° (NNE) 3,436 5.0 -9.7°
